SL-12 DEB, 41807

Orbit data source: Space-Track

SL-12 DEB, 41807 is space debris in HEO originally from a launch on Mon, 25 Dec 2006 UTC launched from the Tyuratam Missile And Space Complex (TTMTR). Debris objects in space refer to the collection of defunct objects orbiting the Earth. Examples of debris include non-operational satellites, rocket bodies, and fragments generated from explosions, collisions, or faulty payload assembly.

Loading next visibility...
Identifier
41807, 2006-062M
Orbit
HEO
Country
Flag of CISCIS
Related business
Manufacturer
RKKE
Mission
Spacecraft
Bus & Motor
Unknown
Mass
Unknown
Launch date (UTC)
2006-12-25 (19 years ago)
Launch vehicle
Unknown
Launch site
Tyuratam Missile And Space Complex (TTMTR)
Object type
Payload
Rocket body
Debris
Shape & HBR
Unknown shape, 0.7 m
Radar Cross Section
Medium (>0.1 m² and <1 m²)

Expand to show TLE details & history
Last TLE update: 4 days ago

TLE from 4 days ago
0 SL-12 DEB
1 41807U 06062M   26030.44834401  .00000424  00000-0  12850-2 0  9991
2 41807  65.0570   0.7031 5584823 236.1188  58.0500  4.42831609  3211
Epoch: 2026-01-30T10:45Z
TLE epoch observation values (Epoch: 2026-01-30T10:45:36.922Z)
Latitude
0.00004°
Longitude
69.59375°
Altitude
9,286.443 km
Speed
5.045 km/s
True Right ascension
00h 02m 44s
True Declination
0° 00' 00"
Sunlit
Object was in daylight at epoch
Visualization orbit readout
Latitude
Unknown
Longitude
Unknown
Altitude
Unknown
Speed
Unknown
Apparent Right ascension
Unknown
Apparent Declination
Unknown
Sunlit
N/A
Visualization observer readout
Local Sidereal Time
17:28:45
Azimuth
Unknown
Elevation
Unknown
Doppler factor
Unknown
Orbital elements
Apogee altitude
18,032.534 km
Perigee altitude
537.401 km
Semi-major axis
15,663.105 km
Eccentricity
0.55848
Inclination
65.057°
RAAN
0.7031°
Arg. of periapsis
236.1188°
True anomaly
123.99126°
Mean anomaly
58.05°
Eccentric anomaly
90.04867°
Mean motion
1.1072 °/min
Orbital period
325.14 mins
BSTAR
0.001285
Loading maneuver chart data...
Computing Atmospheric mass density...
Loading historical data...
Loading historical data...
Loading historical data...
Loading historical data...
Loading historical data...
Loading historical data...
Loading historical data...

Documentation

Showing up to 5 results
|